Big Rapids, MI

2:22 AM EDT on May 26, 2018 (GMT -0400)
Roben-Hood

Weather History for KRQB - April, 2014

Change the Weather History Date:

Friday, April 11, 2014

  Actual Average Record
Temperature  
Mean Temperature 45 °F -  
Max Temperature 61 °F 52 °F 79 °F (1977)
Min Temperature 29 °F 29 °F 10 °F (1973)
Degree Days  
Heating Degree Days 20    
Moisture  
Dew Point 25 °F    
Average Humidity 50    
Maximum Humidity 86    
Minimum Humidity 22    
Precipitation  
Precipitation 0.00 in - - ()
Sea Level Pressure  
Sea Level Pressure 29.97 in    
Wind  
Wind Speed 4 mph (West)    
Max Wind Speed 16 mph    
Max Gust Speed 28 mph    
Visibility 10 miles    
Events      
Averages and records for this station are not official NWS values.
T = Trace of Precipitation, MM = Missing Value Source: NWS Daily Summary

Daily Weather History Graph

Daily Weather History Graph

Search for Another Location

Airport or City:

Astronomy

Apr. 11, 2014 Rise Set
Actual Time 7:05 AM EDT 8:20 PM EDT
Civil Twilight 6:36 AM EDT 8:50 PM EDT
Nautical Twilight 6:00 AM EDT 9:26 PM EDT
Astronomical Twilight 5:23 AM EDT 10:03 PM EDT
Moon 4:54 PM EDT (4/11) 5:07 AM EDT (4/11)
Length of Visible Light 14h 14m
Length of Day
13h 14m
Waxing Gibbous, 87% of the Moon is Illuminated
Apr 11
Waxing Gibbous
Apr 15
Full
Apr 22
Last Quarter
Apr 29
New
May 6
First Quarter

Hourly Weather History & Observations

Time (EDT) Temp. Windchill Dew Point Humidity Pressure Visibility Wind Dir Wind Speed Gust Speed Precip Events Conditions
12:15 AM 44.6 °F 43.1 °F 23.9 °F 44% 29.87 in 10.0 mi WNW 3.5 mph - N/A   Clear
12:35 AM 38.8 °F - 25.9 °F 60% 29.89 in 10.0 mi Calm Calm - N/A   Clear
12:55 AM 37.4 °F - 25.3 °F 62% 29.89 in 10.0 mi Calm Calm - N/A   Clear
1:14 AM 38.8 °F 35.4 °F 24.8 °F 57% 29.90 in 10.0 mi West 4.6 mph - N/A   Clear
1:35 AM 35.4 °F - 25.2 °F 66% 29.91 in 10.0 mi Calm Calm - N/A   Clear
1:55 AM 35.4 °F - 25.5 °F 67% 29.91 in 10.0 mi Calm Calm - N/A   Clear
2:15 AM 35.6 °F - 26.1 °F 68% 29.92 in 10.0 mi Calm Calm - N/A   Clear
2:35 AM 34.5 °F - 25.5 °F 70% 29.92 in 10.0 mi Calm Calm - N/A   Clear
2:55 AM 32.0 °F - 26.4 °F 80% 29.93 in 10.0 mi Calm Calm - N/A   Clear
3:15 AM 33.3 °F - 26.1 °F 75% 29.93 in 10.0 mi Calm Calm - N/A   Clear
3:34 AM 33.3 °F - 25.7 °F 74% 29.94 in 10.0 mi Calm Calm - N/A   Clear
3:55 AM 31.8 °F - 26.1 °F 79% 29.94 in 10.0 mi Calm Calm - N/A   Clear
4:15 AM 31.5 °F - 26.2 °F 81% 29.94 in 10.0 mi Calm Calm - N/A   Clear
4:35 AM 31.6 °F - 26.2 °F 80% 29.93 in 10.0 mi Calm Calm - N/A   Clear
4:55 AM 32.0 °F - 26.1 °F 79% 29.94 in 10.0 mi Calm Calm - N/A   Clear
5:15 AM 30.2 °F - 25.7 °F 83% 29.95 in 10.0 mi Calm Calm - N/A   Clear
5:35 AM 30.2 °F - 25.7 °F 83% 29.96 in 10.0 mi Calm Calm - N/A   Clear
5:55 AM 31.8 °F - 25.0 °F 76% 29.96 in 10.0 mi Calm Calm - N/A   Clear
6:15 AM 30.4 °F - 26.2 °F 85% 29.96 in 10.0 mi Calm Calm - N/A   Clear
6:34 AM 30.9 °F - 25.9 °F 82% 29.97 in 10.0 mi Calm Calm - N/A   Clear
6:55 AM 29.5 °F - 25.3 °F 85% 29.97 in 10.0 mi Calm Calm - N/A   Clear
7:15 AM 29.3 °F - 25.5 °F 86% 29.98 in 10.0 mi Calm Calm - N/A   Clear
7:34 AM 30.4 °F - 25.5 °F 82% 29.99 in 10.0 mi Calm Calm - N/A   Clear
7:55 AM 29.5 °F - 25.5 °F 85% 30.00 in 10.0 mi Calm Calm - N/A   Clear
8:15 AM 30.6 °F - 26.2 °F 84% 30.00 in 10.0 mi Calm Calm - N/A   Clear
8:55 AM 34.2 °F - 29.7 °F 84% 30.01 in 10.0 mi Calm Calm - N/A   Clear
9:15 AM 37.0 °F - 30.6 °F 77% 30.01 in 10.0 mi Calm Calm - N/A   Clear
9:35 AM 40.6 °F 38.6 °F 32.2 °F 72% 30.00 in 10.0 mi East 3.5 mph - N/A   Clear
9:55 AM 45.7 °F - 32.7 °F 61% 30.00 in 10.0 mi Calm Calm - N/A   Clear
10:14 AM 51.8 °F - 26.1 °F 37% 30.00 in 10.0 mi South 8.1 mph - N/A   Clear
10:35 AM 54.0 °F - 23.7 °F 31% 30.00 in 10.0 mi South 6.9 mph - N/A   Clear
10:55 AM 55.0 °F - 20.7 °F 26% 30.00 in 10.0 mi South 9.2 mph 20.7 mph N/A   Clear
11:15 AM 56.3 °F - 20.3 °F 25% 30.00 in 10.0 mi WSW 9.2 mph 21.9 mph N/A   Clear
11:35 AM 57.4 °F - 21.6 °F 25% 30.00 in 10.0 mi WSW 6.9 mph 16.1 mph N/A   Clear
11:55 AM 57.7 °F - 21.4 °F 24% 30.00 in 10.0 mi SW 13.8 mph - N/A   Clear
12:14 PM 58.1 °F - 21.7 °F 25% 29.99 in 10.0 mi West 10.4 mph 20.7 mph N/A   Clear
12:35 PM 58.6 °F - 21.9 °F 24% 29.99 in 10.0 mi WSW 6.9 mph 18.4 mph N/A   Clear
12:55 PM 58.8 °F - 23.4 °F 26% 29.98 in 10.0 mi WSW 11.5 mph 20.7 mph N/A   Clear
1:15 PM 60.1 °F - 23.9 °F 25% 29.97 in 10.0 mi WSW 10.4 mph 21.9 mph N/A   Clear
1:34 PM 60.3 °F - 24.4 °F 25% 29.97 in 10.0 mi WSW 12.7 mph 18.4 mph N/A   Clear
1:55 PM 61.5 °F - 25.5 °F 25% 29.96 in 10.0 mi SW 12.7 mph 19.6 mph N/A   Clear
2:14 PM 61.0 °F - 22.8 °F 23% 29.96 in 10.0 mi SW 11.5 mph 24.2 mph N/A   Clear
2:35 PM 61.0 °F - 21.6 °F 22% 29.96 in 10.0 mi WNW 11.5 mph 23.0 mph N/A   Clear
2:55 PM 60.1 °F - 22.6 °F 24% 29.95 in 10.0 mi West 13.8 mph 25.3 mph N/A   Clear
3:14 PM 59.0 °F - 22.3 °F 24% 29.96 in 10.0 mi West 15.0 mph 23.0 mph N/A   Scattered Clouds
3:35 PM 58.5 °F - 23.4 °F 26% 29.96 in 10.0 mi West 12.7 mph 24.2 mph N/A   Mostly Cloudy
3:55 PM 57.9 °F - 24.4 °F 28% 29.95 in 10.0 mi West 13.8 mph 27.6 mph N/A   Overcast
4:14 PM 58.3 °F - 23.0 °F 26% 29.95 in 10.0 mi West 11.5 mph 24.2 mph N/A   Scattered Clouds
4:35 PM 58.6 °F - 21.2 °F 24% 29.96 in 10.0 mi West 13.8 mph 26.5 mph N/A   Mostly Cloudy
4:55 PM 58.5 °F - 21.7 °F 24% 29.96 in 10.0 mi West 13.8 mph 23.0 mph N/A   Scattered Clouds
5:14 PM 57.7 °F - 21.7 °F 25% 29.95 in 10.0 mi West 13.8 mph 19.6 mph N/A   Clear
5:35 PM 59.4 °F - 20.7 °F 22% 29.95 in 10.0 mi West 16.1 mph 23.0 mph N/A   Clear
5:55 PM 59.2 °F - 20.3 °F 22% 29.95 in 10.0 mi West 12.7 mph 20.7 mph N/A   Clear
6:15 PM 59.4 °F - 20.3 °F 22% 29.95 in 10.0 mi West 15.0 mph 23.0 mph N/A   Mostly Cloudy
6:35 PM 57.4 °F - 21.2 °F 25% 29.95 in 10.0 mi West 12.7 mph 20.7 mph N/A   Overcast
6:55 PM 57.2 °F - 22.1 °F 26% 29.96 in 10.0 mi West 9.2 mph 16.1 mph N/A   Overcast
7:15 PM 57.2 °F - 22.6 °F 26% 29.97 in 10.0 mi West 10.4 mph 17.3 mph N/A   Overcast
7:35 PM 56.5 °F - 23.9 °F 28% 29.97 in 10.0 mi West 11.5 mph 25.3 mph N/A   Overcast
7:54 PM 55.2 °F - 23.5 °F 29% 29.97 in 10.0 mi North 3.5 mph - N/A   Scattered Clouds
8:15 PM 53.8 °F - 23.5 °F 31% 29.97 in 10.0 mi Calm Calm - N/A   Clear
8:35 PM 52.0 °F - 23.7 °F 33% 29.98 in 10.0 mi NW 4.6 mph - N/A   Scattered Clouds
8:54 PM 51.6 °F - 23.5 °F 33% 29.98 in 10.0 mi Calm Calm - N/A   Scattered Clouds
9:15 PM 47.5 °F - 24.4 °F 41% 29.99 in 10.0 mi Calm Calm - N/A   Clear
9:35 PM 46.0 °F - 24.8 °F 43% 29.99 in 10.0 mi Calm Calm - N/A   Clear
9:54 PM 45.0 °F - 24.3 °F 44% 30.00 in 10.0 mi Calm Calm - N/A   Clear
10:15 PM 45.0 °F 43.5 °F 24.3 °F 44% 30.00 in 10.0 mi West 3.5 mph - N/A   Clear
10:35 PM 40.6 °F 38.6 °F 27.5 °F 59% 30.01 in 10.0 mi WSW 3.5 mph - N/A   Clear
10:54 PM 40.1 °F - 26.2 °F 58% 30.01 in 10.0 mi Calm Calm - N/A   Clear
11:15 PM 37.9 °F 35.5 °F 27.3 °F 66% 30.01 in 10.0 mi West 3.5 mph - N/A   Clear
11:35 PM 37.9 °F - 26.4 °F 63% 30.01 in 10.0 mi Calm Calm - N/A   Clear
11:54 PM 35.8 °F 30.9 °F 27.5 °F 72% 30.02 in 10.0 mi West 5.8 mph - N/A   Clear